Location: Niagara
(43.2500°N, 79.0670°W)
Time: 19:07:48
(UTC-04:00)

ISS - Pass Details

Date: 09 October 2017
Orbit: 401 x 408 km, 51.6° (Epoch: 22 October)

Event Time Altitude Azimuth Distance (km) Brightness Sun altitude
Rises 20:33:28 0° 304° (NW) 2,328 1.2 -20.9°
Reaches altitude 10° 20:35:36 10° 310° (NW) 1,467 -0.2 -21.3°
Enters shadow 20:38:03 39° 344° (NNW) 628 -2.7 -21.7°
